Tracking 17557 objects as of 7-February-2016
HD Live streaming from Space Station
objects crossing your sky now

COSMOS 2251 DEB

Track COSMOS 2251 DEB now!
10-day predictions


NORAD ID: 33899
Int'l Code: 1993-036DC
Perigee: 691.6 km
Apogee: 805.3 km
Inclination: 74.1 °
Period: 99.6 minutes
Semi major axis: 7119 km
RCS: 0.032 m2 (small)
Launch date: June 16, 1993
Source: Commonwealth of Independent States (former USSR) (CIS)
Launch site: PLESETSK MISSILE AND SPACE COMPLEX (PKMTR)

Note: This is SATELLITE DEBRIS
Your satellite tracking list
Your tracking list is empty





NASA's NSSDC Master Catalog

Two Line Element Set (TLE):
1 33899U 93036DC  16037.92113578 +.00000802 +00000-0 +22807-3 0  9998
2 33899 074.0606 338.6090 0079878 237.4604 185.7250 14.4521405836754
Source of the keplerian elements: AFSPC

N2YO: 672